Change the Weather History Date:

Tuesday, October 16, 2012

  Actual Average Record
Temperature  
Mean Temperature 51 °F -  
Max Temperature 66 °F 60 °F 80 °F (1998)
Min Temperature 37 °F 41 °F 37 °F (2005)
Degree Days  
Heating Degree Days 14    
Growing Degree Days 1 (Base 50)    
Moisture  
Dew Point 40 °F    
Average Humidity 75    
Maximum Humidity 94    
Minimum Humidity 46    
Precipitation  
Precipitation 0.00 in - - ()
Sea Level Pressure  
Sea Level Pressure 29.91 in    
Wind  
Wind Speed 5 mph (SSE)    
Max Wind Speed 18 mph    
Max Gust Speed 24 mph    
Visibility 8 miles    
Events      
Averages and records for this station are not official NWS values.
T = Trace of Precipitation, MM = Missing Value Source: NWS Daily Summary

Daily Weather History Graph

Daily Weather History Graph

Search for Another Location

Airport or City:

Trip Planner

Search our weather history database for the weather conditions in past years. The results will help you decide how hot, cold, wet, or windy it might be!

Date:

Astronomy

Oct. 16, 2012 Rise Set
Actual Time 7:57 AM EDT 7:02 PM EDT
Civil Twilight 7:29 AM EDT 7:29 PM EDT
Nautical Twilight 6:57 AM EDT 8:01 PM EDT
Astronomical Twilight 6:26 AM EDT 8:33 PM EDT
Moon 9:20 AM EDT (10/16) 7:45 PM EDT (10/16)
Length of Visible Light 11h 59m
Length of Day
11h 04m
New Moon, 2% of the Moon is Illuminated
Oct 16
New Moon
Oct 21
First Quarter
Oct 29
Full
Nov 6
Last Quarter
Nov 13
New

Hourly Weather History & Observations

Time (EDT) Temp. Windchill Dew Point Humidity Pressure Visibility Wind Dir Wind Speed Gust Speed Precip Events Conditions
12:55 AM 40.5 °F - 38.5 °F 93% 30.00 in 6.0 mi Calm Calm - N/A   Clear
1:55 AM 40.1 °F 36.9 °F 37.4 °F 90% 29.99 in 8.0 mi ESE 4.6 mph - N/A   Clear
2:38 AM 39.2 °F - 37.4 °F 93% 30.00 in 4.0 mi Calm Calm - N/A   Clear
2:41 AM 39.2 °F - 37.4 °F 93% 30.00 in 2.5 mi Calm Calm - N/A   Clear
2:44 AM 39.2 °F - 37.4 °F 93% 30.00 in 2.0 mi Calm Calm - N/A   Clear
2:47 AM 39.2 °F - 37.4 °F 93% 30.00 in 2.5 mi Calm Calm - N/A   Clear
2:49 AM 39.2 °F - 37.4 °F 93% 29.99 in 3.0 mi Calm Calm - N/A   Clear
2:55 AM 39.0 °F - 36.5 °F 91% 29.99 in 2.5 mi Calm Calm - N/A   Clear
2:56 AM 39.2 °F - 35.6 °F 87% 30.00 in 1.8 mi Calm Calm - N/A   Clear
3:06 AM 39.2 °F - 37.4 °F 93% 30.00 in 3.0 mi Calm Calm - N/A   Clear
3:08 AM 39.2 °F - 37.4 °F 93% 30.00 in 5.0 mi Calm Calm - N/A   Clear
3:55 AM 37.4 °F - 35.8 °F 94% 29.99 in 6.0 mi Calm Calm - N/A   Clear
4:55 AM 37.9 °F 34.4 °F 36.0 °F 93% 29.98 in 7.0 mi ESE 4.6 mph - N/A   Clear
5:55 AM 37.0 °F 32.4 °F 34.9 °F 92% 29.98 in 9.0 mi SE 5.8 mph - N/A   Clear
6:55 AM 37.2 °F 32.6 °F 34.9 °F 91% 29.98 in 10.0 mi SE 5.8 mph - N/A   Clear
7:55 AM 37.4 °F 31.4 °F 35.6 °F 93% 29.99 in 10.0 mi SE 8.1 mph - N/A   Clear
8:55 AM 41.5 °F 37.8 °F 38.3 °F 88% 29.98 in 10.0 mi SE 5.8 mph - N/A   Clear
9:55 AM 46.8 °F - 40.8 °F 80% 29.97 in 10.0 mi SE 10.4 mph - N/A   Clear
10:31 AM 50.0 °F - 42.8 °F 76% 29.95 in 10.0 mi SE 9.2 mph - N/A   Clear
10:55 AM 52.0 °F - 43.2 °F 72% 29.96 in 10.0 mi SSE 9.2 mph - N/A   Clear
11:55 AM 56.8 °F - 43.7 °F 61% 29.95 in 7.0 mi SSE 11.5 mph - N/A   Clear
12:55 PM 59.9 °F - 43.2 °F 54% 29.92 in 10.0 mi South 10.4 mph - N/A   Clear
1:55 PM 62.6 °F - 44.1 °F 51% 29.88 in 10.0 mi South 15.0 mph - N/A   Clear
2:55 PM 64.6 °F - 44.2 °F 48% 29.85 in 10.0 mi South 13.8 mph - N/A   Partly Cloudy
3:55 PM 64.6 °F - 43.9 °F 47% 29.81 in 10.0 mi South 13.8 mph - N/A   Clear
4:55 PM 65.8 °F - 44.2 °F 46% 29.77 in 10.0 mi SSE 18.4 mph 21.9 mph N/A   Partly Cloudy
5:55 PM 63.0 °F - 43.7 °F 49% 29.75 in 10.0 mi South 13.8 mph - N/A   Clear
6:55 PM 60.8 °F - 43.5 °F 53% 29.72 in 10.0 mi SSE 13.8 mph - N/A   Partly Cloudy
7:55 PM 59.5 °F - 43.9 °F 56% 29.72 in 10.0 mi South 12.7 mph - N/A   Mostly Cloudy
8:55 PM 58.3 °F - 44.1 °F 59% 29.71 in 10.0 mi South 11.5 mph - N/A   Clear
9:55 PM 60.3 °F - 44.6 °F 56% 29.71 in 10.0 mi South 13.8 mph - N/A   Scattered Clouds
10:55 PM 60.6 °F - 45.3 °F 57% 29.70 in 10.0 mi South 17.3 mph 24.2 mph N/A   Partly Cloudy
11:55 PM 59.9 °F - 46.2 °F 61% 29.70 in 10.0 mi South 13.8 mph - N/A   Clear